| time (UTC) | temp F | wind direction | speed MPH | gust MPH | rain 1hr in | rain 24hr in | rain mn in | humidity % | barometer mb |
| 20260505001818 | 78 | 162 | 4.0 | 9.0 | 0.00 | 0.00 | 0.00 | 70 | 1004.4 |
| 20260505001315 | 79 | 171 | 6.0 | 18.0 | 0.00 | 0.00 | 0.00 | 69 | 1004.5 |
| 20260505000812 | 79 | 158 | 7.0 | 15.0 | 0.00 | 0.00 | 0.00 | 69 | 1004.6 |
| 20260505000310 | 79 | 166 | 17.0 | 18.0 | 0.00 | 0.00 | 0.00 | 68 | 1004.6 |
| 20260504235806 | 79 | 185 | 7.0 | 24.0 | 0.00 | 0.00 | 0.00 | 67 | 1004.6 |
| 20260504235304 | 80 | 193 | 13.0 | 19.0 | 0.00 | 0.00 | 0.00 | 67 | 1004.4 |
| 20260504234800 | 80 | 185 | 13.0 | 17.0 | 0.00 | 0.00 | 0.00 | 67 | 1004.5 |
| 20260504234258 | 80 | 174 | 5.0 | 12.0 | 0.00 | 0.00 | 0.00 | 67 | 1004.6 |
| 20260504233754 | 80 | 208 | 2.0 | 21.0 | 0.00 | 0.00 | 0.00 | 66 | 1004.4 |
| 20260504233249 | 80 | 172 | 6.0 | 19.0 | 0.00 | 0.00 | 0.00 | 66 | 1004.5 |
| 20260504232746 | 80 | 212 | 5.0 | 15.0 | 0.00 | 0.00 | 0.00 | 67 | 1004.6 |
| 20260504232243 | 80 | 190 | 14.0 | 15.0 | 0.00 | 0.00 | 0.00 | 66 | 1004.6 |
| 20260504231740 | 80 | 180 | 5.0 | 17.0 | 0.00 | 0.00 | 0.00 | 65 | 1004.8 |
| 20260504231237 | 80 | 175 | 12.0 | 15.0 | 0.00 | 0.00 | 0.00 | 65 | 1004.7 |
| 20260504230733 | 80 | 168 | 9.0 | 20.0 | 0.00 | 0.00 | 0.00 | 65 | 1005.2 |
| 20260504230232 | 81 | 212 | 3.0 | 17.0 | 0.00 | 0.00 | 0.00 | 65 | 1004.9 |
| 20260504225730 | 81 | 163 | 7.0 | 15.0 | 0.00 | 0.00 | 0.00 | 65 | 1004.9 |
| 20260504225226 | 81 | 189 | 7.0 | 29.0 | 0.00 | 0.00 | 0.00 | 64 | 1004.9 |
| 20260504224723 | 81 | 174 | 3.0 | 16.0 | 0.00 | 0.00 | 0.00 | 64 | 1005.0 |
| 20260504224220 | 81 | 176 | 12.0 | 20.0 | 0.00 | 0.00 | 0.00 | 65 | 1005.0 |
| 20260504223716 | 81 | 173 | 12.0 | 17.0 | 0.00 | 0.00 | 0.00 | 65 | 1004.7 |
| 20260504223212 | 81 | 175 | 10.0 | 24.0 | 0.00 | 0.00 | 0.00 | 64 | 1005.0 |
| 20260504222709 | 82 | 169 | 7.0 | 16.0 | 0.00 | 0.00 | 0.00 | 63 | 1005.0 |
| 20260504222206 | 81 | 170 | 6.0 | 17.0 | 0.00 | 0.00 | 0.00 | 64 | 1005.2 |
| 20260504221704 | 81 | 156 | 11.0 | 23.0 | 0.00 | 0.00 | 0.00 | 63 | 1005.4 |
| 20260504221201 | 81 | 179 | 4.0 | 18.0 | 0.00 | 0.00 | 0.00 | 62 | 1005.2 |
| 20260504220657 | 81 | 170 | 11.0 | 20.0 | 0.00 | 0.00 | 0.00 | 62 | 1005.3 |
| 20260504220155 | 81 | 165 | 8.0 | 22.0 | 0.00 | 0.00 | 0.00 | 62 | 1005.2 |
| 20260504215651 | 81 | 169 | 5.0 | 21.0 | 0.00 | 0.00 | 0.00 | 62 | 1005.4 |
| 20260504215148 | 81 | 173 | 4.0 | 15.0 | 0.00 | 0.00 | 0.00 | 62 | 1005.2 |
| 20260504214644 | 81 | 201 | 7.0 | 20.0 | 0.00 | 0.00 | 0.00 | 62 | 1005.5 |
| 20260504214141 | 81 | 148 | 19.0 | 24.0 | 0.00 | 0.00 | 0.00 | 61 | 1005.5 |
| 20260504213637 | 82 | 186 | 3.0 | 16.0 | 0.00 | 0.00 | 0.00 | 61 | 1005.6 |
| 20260504213134 | 81 | 159 | 21.0 | 21.0 | 0.00 | 0.00 | 0.00 | 62 | 1005.8 |
| 20260504212630 | 81 | 153 | 6.0 | 24.0 | 0.00 | 0.00 | 0.00 | 62 | 1005.7 |
| 20260504212127 | 82 | 180 | 9.0 | 18.0 | 0.00 | 0.00 | 0.00 | 61 | 1005.9 |
| 20260504211625 | 82 | 176 | 7.0 | 19.0 | 0.00 | 0.00 | 0.00 | 60 | 1005.8 |
| 20260504211121 | 82 | 177 | 5.0 | 20.0 | 0.00 | 0.00 | 0.00 | 62 | 1005.8 |
| 20260504210619 | 82 | 170 | 5.0 | 15.0 | 0.00 | 0.00 | 0.00 | 61 | 1005.9 |
| 20260504210115 | 82 | 168 | 4.0 | 20.0 | 0.00 | 0.00 | 0.00 | 60 | 1006.3 |
| 20260504205613 | 82 | 187 | 5.0 | 23.0 | 0.00 | 0.00 | 0.00 | 61 | 1006.2 |
| 20260504205110 | 82 | 172 | 10.0 | 15.0 | 0.00 | 0.00 | 0.00 | 60 | 1006.2 |
| 20260504204608 | 82 | 181 | 14.0 | 20.0 | 0.00 | 0.00 | 0.00 | 60 | 1006.2 |
| 20260504204107 | 82 | 160 | 13.0 | 23.0 | 0.00 | 0.00 | 0.00 | 59 | 1006.4 |
| 20260504203605 | 82 | 179 | 7.0 | 20.0 | 0.00 | 0.00 | 0.00 | 60 | 1006.6 |
| 20260504203102 | 82 | 175 | 11.0 | 25.0 | 0.00 | 0.00 | 0.00 | 60 | 1006.5 |
| 20260504202557 | 83 | 183 | 3.0 | 13.0 | 0.00 | 0.00 | 0.00 | 61 | 1006.8 |
| 20260504202054 | 82 | 172 | 7.0 | 22.0 | 0.00 | 0.00 | 0.00 | 60 | 1006.6 |
| 20260504201551 | 83 | 215 | 3.0 | 17.0 | 0.00 | 0.00 | 0.00 | 62 | 1007.0 |
| 20260504201049 | 82 | 198 | 5.0 | 22.0 | 0.00 | 0.00 | 0.00 | 61 | 1007.1 |
| 20260504200545 | 82 | 181 | 5.0 | 19.0 | 0.00 | 0.00 | 0.00 | 60 | 1007.2 |
| 20260504200042 | 82 | 151 | 3.0 | 16.0 | 0.00 | 0.00 | 0.00 | 60 | 1007.2 |
| 20260504195538 | 81 | 179 | 8.0 | 24.0 | 0.00 | 0.00 | 0.00 | 62 | 1007.5 |
| 20260504195035 | 82 | 142 | 8.0 | 13.0 | 0.00 | 0.00 | 0.00 | 61 | 1007.5 |
| 20260504194531 | 82 | 189 | 8.0 | 21.0 | 0.00 | 0.00 | 0.00 | 60 | 1007.4 |
| 20260504194027 | 82 | 178 | 4.0 | 19.0 | 0.00 | 0.00 | 0.00 | 62 | 1007.9 |
| 20260504193524 | 82 | 201 | 6.0 | 20.0 | 0.00 | 0.00 | 0.00 | 60 | 1008.1 |
| 20260504193022 | 81 | 159 | 7.0 | 13.0 | 0.00 | 0.00 | 0.00 | 62 | 1008.0 |
| 20260504192520 | 81 | 175 | 7.0 | 20.0 | 0.00 | 0.00 | 0.00 | 61 | 1007.9 |
| 20260504192018 | 82 | 210 | 5.0 | 17.0 | 0.00 | 0.00 | 0.00 | 61 | 1008.0 |
| 20260504191516 | 80 | 205 | 5.0 | 16.0 | 0.00 | 0.00 | 0.00 | 63 | 1008.1 |
| 20260504191012 | 80 | 186 | 8.0 | 19.0 | 0.00 | 0.00 | 0.00 | 62 | 1008.1 |
| 20260504190508 | 80 | 219 | 3.0 | 14.0 | 0.00 | 0.00 | 0.00 | 63 | 1007.9 |
| 20260504190004 | 79 | 174 | 5.0 | 24.0 | 0.00 | 0.00 | 0.00 | 64 | 1008.4 |
| 20260504185501 | 80 | 213 | 7.0 | 17.0 | 0.00 | 0.00 | 0.00 | 61 | 1008.4 |
| 20260504184958 | 80 | 145 | 9.0 | 18.0 | 0.00 | 0.00 | 0.00 | 62 | 1008.3 |
| 20260504184453 | 79 | 180 | 22.0 | 29.0 | 0.00 | 0.00 | 0.00 | 63 | 1008.5 |
| 20260504183949 | 79 | 182 | 10.0 | 23.0 | 0.00 | 0.00 | 0.00 | 63 | 1008.5 |
| 20260504183446 | 79 | 216 | 4.0 | 17.0 | 0.00 | 0.00 | 0.00 | 63 | 1008.7 |
| 20260504182944 | 78 | 177 | 10.0 | 21.0 | 0.00 | 0.00 | 0.00 | 63 | 1008.8 |
| 20260504182440 | 79 | 214 | 12.0 | 16.0 | 0.00 | 0.00 | 0.00 | 63 | 1008.9 |
| 20260504181938 | 80 | 210 | 9.0 | 15.0 | 0.00 | 0.00 | 0.00 | 62 | 1008.8 |
| 20260504181435 | 79 | 200 | 7.0 | 17.0 | 0.00 | 0.00 | 0.00 | 64 | 1009.0 |
| 20260504180934 | 78 | 208 | 4.0 | 15.0 | 0.00 | 0.00 | 0.00 | 65 | 1008.9 |
| 20260504180432 | 79 | 159 | 12.0 | 12.0 | 0.00 | 0.00 | 0.00 | 62 | 1009.1 |
| 20260504175930 | 78 | 238 | 4.0 | 20.0 | 0.00 | 0.00 | 0.00 | 66 | 1008.9 |
| 20260504175427 | 78 | 185 | 4.0 | 17.0 | 0.00 | 0.00 | 0.00 | 65 | 1009.2 |
| 20260504174925 | 77 | 163 | 6.0 | 26.0 | 0.00 | 0.00 | 0.00 | 64 | 1009.2 |
| 20260504174422 | 77 | 217 | 9.0 | 17.0 | 0.00 | 0.00 | 0.00 | 64 | 1009.5 |
| 20260504173919 | 77 | 221 | 5.0 | 30.0 | 0.00 | 0.00 | 0.00 | 64 | 1009.3 |
| 20260504173416 | 77 | 202 | 11.0 | 29.0 | 0.00 | 0.00 | 0.00 | 63 | 1009.5 |
| 20260504172913 | 78 | 217 | 3.0 | 13.0 | 0.00 | 0.00 | 0.00 | 65 | 1009.3 |
| 20260504172409 | 77 | 193 | 9.0 | 20.0 | 0.00 | 0.00 | 0.00 | 64 | 1009.5 |
| 20260504171905 | 77 | 201 | 11.0 | 20.0 | 0.00 | 0.00 | 0.00 | 63 | 1009.7 |
| 20260504171403 | 77 | 218 | 8.0 | 18.0 | 0.00 | 0.00 | 0.00 | 64 | 1010.0 |
| 20260504170859 | 77 | 239 | 11.0 | 14.0 | 0.00 | 0.00 | 0.00 | 64 | 1010.0 |
| 20260504170356 | 77 | 179 | 5.0 | 22.0 | 0.00 | 0.00 | 0.00 | 65 | 1010.0 |
| 20260504160315 | 74 | 191 | 4.0 | 17.0 | 0.00 | 0.00 | 0.00 | 67 | 1010.9 |
| 20260504150740 | 70 | 201 | 5.0 | 31.0 | 0.00 | 0.00 | 0.00 | 73 | 1011.0 |
| 20260504150236 | 70 | 186 | 11.0 | 27.0 | 0.00 | 0.00 | 0.00 | 73 | 1010.9 |
| 20260504141206 | 68 | 214 | 16.0 | 19.0 | 0.00 | 0.00 | 0.00 | 75 | 1011.3 |
| 20260504140703 | 68 | 198 | 4.0 | 16.0 | 0.00 | 0.00 | 0.00 | 76 | 1011.3 |
| 20260504140158 | 68 | 177 | 9.0 | 26.0 | 0.00 | 0.00 | 0.00 | 77 | 1011.1 |
| 20260504130626 | 64 | 182 | 5.0 | 17.0 | 0.00 | 0.00 | 0.00 | 82 | 1011.4 |
| 20260504130123 | 64 | 218 | 8.0 | 16.0 | 0.00 | 0.00 | 0.00 | 82 | 1011.4 |
| 20260504110515 | 60 | 196 | 4.0 | 13.0 | 0.00 | 0.00 | 0.00 | 87 | 1011.0 |
| 20260504100437 | 60 | 191 | 2.0 | 12.0 | 0.00 | 0.00 | 0.00 | 85 | 1011.5 |
| 20260504081830 | 62 | 199 | 2.0 | 9.0 | 0.00 | 0.00 | 0.00 | 79 | 1012.3 |
| 20260504081326 | 62 | 192 | 4.0 | 7.0 | 0.00 | 0.00 | 0.00 | 79 | 1012.1 |
| 20260504080822 | 62 | 168 | 1.0 | 9.0 | 0.00 | 0.00 | 0.00 | 78 | 1012.3 |
| 20260504080320 | 62 | 175 | 5.0 | 8.0 | 0.00 | 0.00 | 0.00 | 77 | 1012.3 |
| 20260504070246 | 64 | 137 | 3.0 | 13.0 | 0.00 | 0.00 | 0.00 | 69 | 1012.7 |
| 20260504060202 | 65 | 170 | 3.0 | 9.0 | 0.00 | 0.00 | 0.00 | 67 | 1013.5 |
| 20260504050630 | 65 | 152 | 4.0 | 7.0 | 0.00 | 0.00 | 0.00 | 66 | 1013.9 |
| 20260504050127 | 65 | 153 | 4.0 | 6.0 | 0.00 | 0.00 | 0.00 | 65 | 1013.8 |
| 20260504045624 | 65 | 163 | 4.0 | 9.0 | 0.00 | 0.00 | 0.00 | 64 | 1014.0 |
| 20260504045118 | 65 | 166 | 5.0 | 7.0 | 0.00 | 0.00 | 0.00 | 64 | 1014.1 |
| 20260504044617 | 65 | 164 | 3.0 | 6.0 | 0.00 | 0.00 | 0.00 | 64 | 1013.9 |
| 20260504044113 | 66 | 181 | 4.0 | 7.0 | 0.00 | 0.00 | 0.00 | 63 | 1014.2 |
| 20260504043610 | 66 | 183 | 4.0 | 6.0 | 0.00 | 0.00 | 0.00 | 63 | 1014.0 |
| 20260504043108 | 66 | 163 | 3.0 | 7.0 | 0.00 | 0.00 | 0.00 | 62 | 1014.1 |
| 20260504042605 | 66 | 183 | 3.0 | 7.0 | 0.00 | 0.00 | 0.00 | 62 | 1014.1 |
| 20260504042101 | 67 | 180 | 4.0 | 7.0 | 0.00 | 0.00 | 0.00 | 61 | 1014.0 |
| 20260504041557 | 67 | 180 | 8.0 | 10.0 | 0.00 | 0.00 | 0.00 | 60 | 1014.2 |
| 20260504041054 | 67 | 166 | 2.0 | 6.0 | 0.00 | 0.00 | 0.00 | 60 | 1014.2 |
| 20260504040551 | 68 | 149 | 3.0 | 8.0 | 0.00 | 0.00 | 0.00 | 59 | 1014.4 |
| 20260504040047 | 68 | 170 | 5.0 | 7.0 | 0.00 | 0.00 | 0.00 | 58 | 1014.2 |
| 20260504035544 | 68 | 168 | 3.0 | 10.0 | 0.00 | 0.00 | 0.00 | 58 | 1014.3 |
| 20260504035041 | 68 | 157 | 4.0 | 10.0 | 0.00 | 0.00 | 0.00 | 58 | 1014.3 |
| 20260504034539 | 68 | 171 | 5.0 | 11.0 | 0.00 | 0.00 | 0.00 | 57 | 1014.3 |
| 20260504034035 | 68 | 182 | 4.0 | 9.0 | 0.00 | 0.00 | 0.00 | 58 | 1014.4 |
| 20260504033533 | 68 | 169 | 5.0 | 9.0 | 0.00 | 0.00 | 0.00 | 57 | 1014.2 |
| 20260504033030 | 68 | 158 | 4.0 | 12.0 | 0.00 | 0.00 | 0.00 | 57 | 1014.2 |
| 20260504032527 | 68 | 155 | 3.0 | 8.0 | 0.00 | 0.00 | 0.00 | 57 | 1014.3 |
| 20260504032024 | 69 | 173 | 3.0 | 9.0 | 0.00 | 0.00 | 0.00 | 57 | 1014.4 |
| 20260504031521 | 69 | 174 | 3.0 | 7.0 | 0.00 | 0.00 | 0.00 | 56 | 1014.2 |
| 20260504031017 | 69 | 178 | 4.0 | 9.0 | 0.00 | 0.00 | 0.00 | 56 | 1014.0 |
| 20260504030515 | 69 | 164 | 6.0 | 10.0 | 0.00 | 0.00 | 0.00 | 56 | 1013.8 |
| 20260504030011 | 69 | 165 | 5.0 | 8.0 | 0.00 | 0.00 | 0.00 | 56 | 1013.8 |
| 20260504025508 | 69 | 148 | 4.0 | 11.0 | 0.00 | 0.00 | 0.00 | 55 | 1013.7 |
| 20260504025005 | 69 | 167 | 5.0 | 9.0 | 0.00 | 0.00 | 0.00 | 55 | 1013.7 |
| 20260504024502 | 69 | 151 | 4.0 | 11.0 | 0.00 | 0.00 | 0.00 | 55 | 1013.9 |
| 20260504023959 | 69 | 167 | 4.0 | 10.0 | 0.00 | 0.00 | 0.00 | 56 | 1014.0 |
| 20260504023455 | 69 | 162 | 6.0 | 9.0 | 0.00 | 0.00 | 0.00 | 55 | 1013.9 |
| 20260504022950 | 69 | 182 | 4.0 | 8.0 | 0.00 | 0.00 | 0.00 | 56 | 1013.8 |
| 20260504022447 | 69 | 153 | 4.0 | 11.0 | 0.00 | 0.00 | 0.00 | 56 | 1013.9 |
| 20260504021944 | 69 | 158 | 4.0 | 9.0 | 0.00 | 0.00 | 0.00 | 55 | 1013.9 |
| 20260504021441 | 69 | 176 | 3.0 | 7.0 | 0.00 | 0.00 | 0.00 | 56 | 1013.8 |
| 20260504020938 | 69 | 163 | 6.0 | 10.0 | 0.00 | 0.00 | 0.00 | 55 | 1013.9 |
| 20260504020435 | 69 | 159 | 9.0 | 9.0 | 0.00 | 0.00 | 0.00 | 54 | 1014.0 |
| 20260504015932 | 70 | 163 | 5.0 | 7.0 | 0.00 | 0.00 | 0.00 | 54 | 1013.8 |
| 20260504015427 | 70 | 167 | 4.0 | 8.0 | 0.00 | 0.00 | 0.00 | 54 | 1013.8 |
| 20260504014923 | 70 | 159 | 2.0 | 7.0 | 0.00 | 0.00 | 0.00 | 53 | 1013.9 |
| 20260504014420 | 70 | 175 | 5.0 | 7.0 | 0.00 | 0.00 | 0.00 | 52 | 1014.0 |
| 20260504013917 | 70 | 152 | 8.0 | 8.0 | 0.00 | 0.00 | 0.00 | 52 | 1014.0 |
| 20260504013415 | 71 | 168 | 3.0 | 9.0 | 0.00 | 0.00 | 0.00 | 51 | 1013.9 |
| 20260504012911 | 71 | 163 | 4.0 | 9.0 | 0.00 | 0.00 | 0.00 | 50 | 1013.7 |
| 20260504012409 | 71 | 177 | 7.0 | 8.0 | 0.00 | 0.00 | 0.00 | 49 | 1013.6 |
| 20260504011906 | 72 | 155 | 3.0 | 8.0 | 0.00 | 0.00 | 0.00 | 48 | 1013.5 |
| 20260504011403 | 72 | 180 | 3.0 | 10.0 | 0.00 | 0.00 | 0.00 | 47 | 1013.6 |
| 20260504010859 | 73 | 143 | 3.0 | 9.0 | 0.00 | 0.00 | 0.00 | 47 | 1013.8 |
| 20260504010355 | 73 | 151 | 3.0 | 9.0 | 0.00 | 0.00 | 0.00 | 46 | 1013.6 |
| 20260504005851 | 73 | 177 | 6.0 | 10.0 | 0.00 | 0.00 | 0.00 | 45 | 1013.8 |
| 20260504005348 | 74 | 172 | 8.0 | 13.0 | 0.00 | 0.00 | 0.00 | 44 | 1013.8 |
| 20260504004846 | 74 | 163 | 4.0 | 9.0 | 0.00 | 0.00 | 0.00 | 43 | 1013.6 |
| 20260504004343 | 75 | 163 | 3.0 | 10.0 | 0.00 | 0.00 | 0.00 | 43 | 1013.6 |
| 20260504003840 | 75 | 158 | 2.0 | 11.0 | 0.00 | 0.00 | 0.00 | 43 | 1013.8 |
| 20260504003336 | 75 | 146 | 5.0 | 13.0 | 0.00 | 0.00 | 0.00 | 42 | 1013.7 |
| 20260504002833 | 76 | 157 | 5.0 | 11.0 | 0.00 | 0.00 | 0.00 | 40 | 1013.7 |
| 20260504002330 | 76 | 171 | 3.0 | 10.0 | 0.00 | 0.00 | 0.00 | 41 | 1013.3 |